,,,PA_Meas_PMT16A,,PR_Meas_QMR101_102,,RH_Meas_QMH101,,SR_Meas_QMS101,,TA_Meas_QMH101,,GenWind,,GenWind,
date,time,status,PA,status,PR,status,RH,status,SR,status,TA,status,DirAvg,status,SpdAvg,
2010-07-27, 00:00:04,VALID,1000.78,VALID,0,VALID,90.472,VALID,0,VALID,23.5646,VALID,78,VALID,0.591797,
2010-07-27, 00:01:04,VALID,1000.78,VALID,0,VALID,90.6017,VALID,0,VALID,23.5841,VALID,78,VALID,0.445313,
2010-07-27, 00:02:04,VALID,1000.81,VALID,0,VALID,90.5026,VALID,0,VALID,23.6036,VALID,78,VALID,0.444141,
2010-07-27, 00:03:04,VALID,1000.77,VALID,0,VALID,90.6933,VALID,0,VALID,23.6036,VALID,78,VALID,0.546875,
2010-07-27, 00:04:04,VALID,1000.78,VALID,0,VALID,90.4415,VALID,0,VALID,23.6214,VALID,78,VALID,0.525,
2010-07-27, 00:05:04,VALID,1000.78,VALID,0,VALID,90.3271,VALID,0,VALID,23.6232,VALID,78,VALID,0,
2010-07-27, 00:06:04,VALID,1000.8,VALID,0,VALID,90.2737,VALID,0,VALID,23.6232,VALID,78,VALID,0,
2010-07-27, 00:07:04,VALID,1000.78,VALID,0,VALID,90.4339,VALID,0,VALID,23.6232,VALID,78,VALID,0,
2010-07-27, 00:08:04,VALID,1000.77,VALID,0,VALID,90.6094,VALID,0,VALID,23.6232,VALID,78,VALID,0,
2010-07-27, 00:09:04,VALID,1000.77,VALID,0,VALID,90.7543,VALID,0,VALID,23.6019,VALID,78,VALID,0,
2010-07-27, 00:10:04,VALID,1000.79,VALID,0,VALID,90.8383,VALID,0,VALID,23.6232,VALID,78,VALID,0,
2010-07-27, 00:11:04,VALID,1000.79,VALID,0,VALID,90.7238,VALID,0,VALID,23.6232,VALID,78,VALID,0,
2010-07-27, 00:12:04,VALID,1000.83,VALID,0,VALID,90.6323,VALID,0,VALID,23.6232,VALID,78,VALID,0,
2010-07-27, 00:13:04,VALID,1000.83,VALID,0,VALID,90.5712,VALID,0,VALID,23.6036,VALID,78,VALID,0,
2010-07-27, 00:14:04,VALID,1000.83,VALID,0,VALID,90.5102,VALID,0,VALID,23.6036,VALID,78,VALID,0,
2010-07-27, 00:15:04,VALID,1000.81,VALID,0,VALID,90.472,VALID,0,VALID,23.6036,VALID,78,VALID,0,
2010-07-27, 00:16:04,VALID,1000.82,VALID,0,VALID,90.472,VALID,0,VALID,23.5646,VALID,78,VALID,0,
2010-07-27, 00:17:04,VALID,1000.83,VALID,0,VALID,90.7467,VALID,0,VALID,23.5664,VALID,78,VALID,0,
2010-07-27, 00:18:04,VALID,1000.8,VALID,0,VALID,90.411,VALID,0,VALID,23.5256,VALID,78,VALID,0,
2010-07-27, 00:19:04,VALID,1000.79,VALID,0,VALID,90.9603,VALID,0,VALID,23.5061,VALID,78,VALID,0,
2010-07-27, 00:20:04,VALID,1000.76,VALID,0,VALID,91.0137,VALID,0,VALID,23.5451,VALID,78,VALID,0,
2010-07-27, 00:21:04,VALID,1000.73,VALID,0,VALID,91.1587,VALID,0,VALID,23.5646,VALID,78,VALID,0,
2010-07-27, 00:22:04,VALID,1000.74,VALID,0,VALID,91.3189,VALID,0,VALID,23.6036,VALID,78,VALID,0,
2010-07-27, 00:23:04,VALID,1000.72,VALID,0,VALID,90.9603,VALID,0,VALID,23.5841,VALID,78,VALID,0,
2010-07-27, 00:24:04,VALID,1000.69,VALID,0,VALID,91.3113,VALID,0,VALID,23.6036,VALID,78,VALID,0,
2010-07-27, 00:25:04,VALID,1000.7,VALID,0,VALID,91.3647,VALID,0,VALID,23.6232,VALID,78,VALID,0,
2010-07-27, 00:26:04,VALID,1000.71,VALID,0,VALID,90.9909,VALID,0,VALID,23.5823,VALID,78,VALID,0,
2010-07-27, 00:27:04,VALID,1000.72,VALID,0,VALID,91.5173,VALID,0,VALID,23.6427,VALID,78,VALID,0,
2010-07-27, 00:28:04,VALID,1000.72,VALID,0,VALID,91.8225,VALID,0,VALID,23.7012,VALID,78,VALID,0,
2010-07-27, 00:29:04,VALID,1000.68,VALID,0,VALID,91.7767,VALID,0,VALID,23.7402,VALID,92,VALID,0,
2010-07-27, 00:30:04,VALID,1000.66,VALID,0,VALID,91.7233,VALID,0,VALID,23.7793,VALID,97,VALID,0,
2010-07-27, 00:31:04,VALID,1000.66,VALID,0,VALID,91.7385,VALID,0,VALID,23.7775,VALID,116,VALID,0,
2010-07-27, 00:32:04,VALID,1000.65,VALID,0,VALID,91.9064,VALID,0,VALID,23.8573,VALID,117,VALID,0,
2010-07-27, 00:33:04,VALID,1000.67,VALID,0,VALID,91.6165,VALID,0,VALID,23.8183,VALID,132,VALID,0,
2010-07-27, 00:34:04,VALID,1000.67,VALID,0,VALID,91.5936,VALID,0,VALID,23.8183,VALID,148,VALID,0,
2010-07-27, 00:35:04,VALID,1000.7,VALID,0,VALID,91.6699,VALID,0,VALID,23.8378,VALID,168,VALID,0,
2010-07-27, 00:36:04,VALID,1000.71,VALID,0,VALID,91.7462,VALID,0,VALID,23.8768,VALID,168,VALID,0,
2010-07-27, 00:37:04,VALID,1000.74,VALID,0,VALID,91.4868,VALID,0,VALID,23.8963,VALID,168,VALID,0,
2010-07-27, 00:38:04,VALID,1000.73,VALID,0,VALID,91.4944,VALID,0,VALID,23.9354,VALID,167,VALID,1.05625,
2010-07-27, 00:39:04,VALID,1000.73,VALID,0,VALID,91.2655,VALID,0,VALID,23.9744,VALID,164,VALID,0.931641,
2010-07-27, 00:40:04,VALID,1000.73,VALID,0,VALID,91.0595,VALID,0,VALID,23.9939,VALID,156,VALID,1.08867,
2010-07-27, 00:41:04,VALID,1000.73,VALID,0,VALID,90.9451,VALID,0,VALID,24.0134,VALID,153,VALID,1.03672,
2010-07-27, 00:42:04,VALID,1000.72,VALID,0,VALID,90.9222,VALID,0,VALID,24.0134,VALID,152,VALID,1.16953,
2010-07-27, 00:43:04,VALID,1000.73,VALID,0,VALID,90.8993,VALID,0,VALID,24.0134,VALID,153,VALID,1.10547,
2010-07-27, 00:44:04,VALID,1000.77,VALID,0,VALID,90.8001,VALID,0,VALID,24.0329,VALID,153,VALID,0.985547,
2010-07-27, 00:45:04,VALID,1000.76,VALID,0,VALID,90.7925,VALID,0,VALID,24.0134,VALID,153,VALID,0.784766,
2010-07-27, 00:46:04,VALID,1000.75,VALID,0,VALID,90.7849,VALID,0,VALID,24.0134,VALID,153,VALID,0.575781,
2010-07-27, 00:47:04,VALID,1000.74,VALID,0,VALID,90.5483,VALID,0,VALID,23.9549,VALID,153,VALID,0.342969,
2010-07-27, 00:48:04,VALID,1000.72,VALID,0,VALID,90.6857,VALID,0,VALID,23.9549,VALID,153,VALID,0.216016,
2010-07-27, 00:49:04,VALID,1000.73,VALID,0,VALID,90.6704,VALID,0,VALID,23.9159,VALID,152,VALID,0,
2010-07-27, 00:50:04,VALID,1000.74,VALID,0,VALID,90.9756,VALID,0,VALID,23.9159,VALID,152,VALID,0,
2010-07-27, 00:51:04,VALID,1000.74,VALID,0,VALID,91.1511,VALID,0,VALID,23.8963,VALID,152,VALID,0,
2010-07-27, 00:52:04,VALID,1000.73,VALID,0,VALID,90.7849,VALID,0,VALID,23.8573,VALID,114,VALID,0.577344,
2010-07-27, 00:53:04,VALID,1000.75,VALID,0,VALID,90.4568,VALID,0,VALID,23.7988,VALID,107,VALID,0.575391,
2010-07-27, 00:54:04,VALID,1000.73,VALID,0,VALID,90.2966,VALID,0,VALID,23.7012,VALID,71,VALID,0.736719,
2010-07-27, 00:55:04,VALID,1000.68,VALID,0,VALID,90.3652,VALID,0,VALID,23.6622,VALID,71,VALID,0.705078,
2010-07-27, 00:56:04,VALID,1000.66,VALID,0,VALID,90.7772,VALID,0,VALID,23.6036,VALID,71,VALID,0.597266,
2010-07-27, 00:57:04,VALID,1000.61,VALID,0,VALID,91.1663,VALID,0,VALID,23.5451,VALID,71,VALID,0.513672,
2010-07-27, 00:58:04,VALID,1000.65,VALID,0,VALID,91.2884,VALID,0,VALID,23.5256,VALID,71,VALID,0.242578,
2010-07-27, 00:59:04,VALID,1000.61,VALID,0,VALID,91.296,VALID,0,VALID,23.4671,VALID,71,VALID,0.403906,
2010-07-27, 01:00:04,VALID,1000.63,VALID,0,VALID,91.3113,VALID,0,VALID,23.4475,VALID,71,VALID,0.247266,
2010-07-27, 01:01:04,VALID,1000.6,VALID,0,VALID,91.4181,VALID,0,VALID,23.4085,VALID,71,VALID,0.187891,
2010-07-27, 01:02:04,VALID,1000.61,VALID,0,VALID,91.5707,VALID,0,VALID,23.3695,VALID,71,VALID,0.550391,
2010-07-27, 01:03:04,VALID,1000.62,VALID,0,VALID,91.7309,VALID,0,VALID,23.35,VALID,138,VALID,0.332812,
2010-07-27, 01:04:04,VALID,1000.58,VALID,0,VALID,91.8301,VALID,0,VALID,23.35,VALID,137,VALID,0,
2010-07-27, 01:05:04,VALID,1000.59,VALID,0,VALID,91.7843,VALID,0,VALID,23.35,VALID,83,VALID,0.862109,
2010-07-27, 01:06:04,VALID,1000.54,VALID,0,VALID,91.6623,VALID,0,VALID,23.3305,VALID,73,VALID,1.03164,
2010-07-27, 01:07:04,VALID,1000.54,VALID,0,VALID,91.4486,VALID,0,VALID,23.2915,VALID,68,VALID,0.981641,
2010-07-27, 01:08:04,VALID,1000.49,VALID,0,VALID,91.0748,VALID,0,VALID,23.2134,VALID,68,VALID,0.619531,
2010-07-27, 01:09:04,VALID,1000.49,VALID,0,VALID,90.9756,VALID,0,VALID,23.1549,VALID,67,VALID,0.113281,
2010-07-27, 01:10:04,VALID,1000.46,VALID,0,VALID,91.0137,VALID,0,VALID,23.1159,VALID,67,VALID,0.0203125,
2010-07-27, 01:11:04,VALID,1000.42,VALID,0,VALID,91.2884,VALID,0,VALID,23.0556,VALID,67,VALID,0.541797,
2010-07-27, 01:12:04,VALID,1000.42,VALID,0,VALID,91.5173,VALID,0,VALID,23.0573,VALID,67,VALID,0.372266,
2010-07-27, 01:13:04,VALID,1000.41,VALID,0,VALID,91.8911,VALID,0,VALID,23.0769,VALID,67,VALID,0.430859,
2010-07-27, 01:14:04,VALID,1000.4,VALID,0,VALID,92.1811,VALID,0,VALID,23.0964,VALID,55,VALID,0.616406,
2010-07-27, 01:15:04,VALID,1000.39,VALID,0,VALID,92.2497,VALID,0,VALID,23.0964,VALID,31,VALID,0.685938,
2010-07-27, 01:16:04,VALID,1000.38,VALID,0,VALID,92.2726,VALID,0,VALID,23.1159,VALID,16,VALID,0.621094,
2010-07-27, 01:17:04,VALID,1000.38,VALID,0,VALID,92.1506,VALID,0,VALID,23.1159,VALID,12,VALID,1.09453,
2010-07-27, 01:18:04,VALID,1000.39,VALID,0,VALID,92.1124,VALID,0,VALID,23.1159,VALID,12,VALID,1.12891,
2010-07-27, 01:19:04,VALID,1000.38,VALID,0,VALID,91.8988,VALID,0,VALID,23.0769,VALID,12,VALID,1.11484,
2010-07-27, 01:20:04,VALID,1000.38,VALID,0,VALID,91.8301,VALID,0,VALID,23.0378,VALID,12,VALID,0.970703,
2010-07-27, 01:21:04,VALID,1000.36,VALID,0,VALID,91.9598,VALID,0,VALID,23.0573,VALID,12,VALID,0.880078,
2010-07-27, 01:22:04,VALID,1000.34,VALID,0,VALID,91.8988,VALID,0,VALID,23.0378,VALID,13,VALID,1.12461,
2010-07-27, 01:23:04,VALID,1000.31,VALID,0,VALID,91.8072,VALID,0,VALID,22.9776,VALID,13,VALID,1.22422,
2010-07-27, 01:24:04,VALID,1000.32,VALID,0,VALID,91.9064,VALID,0,VALID,22.9988,VALID,14,VALID,1.25703,
2010-07-27, 01:25:04,VALID,1000.34,VALID,0,VALID,91.8377,VALID,0,VALID,23.0183,VALID,10,VALID,1.08398,
2010-07-27, 01:26:04,VALID,1000.35,VALID,0,VALID,91.7462,VALID,0,VALID,23.0183,VALID,9,VALID,0.933594,
2010-07-27, 01:27:04,VALID,1000.33,VALID,0,VALID,91.6394,VALID,0,VALID,23.0378,VALID,9,VALID,0.892578,
2010-07-27, 01:28:04,VALID,1000.34,VALID,0,VALID,91.6241,VALID,0,VALID,23.0183,VALID,9,VALID,0.787109,
2010-07-27, 01:29:04,VALID,1000.34,VALID,0,VALID,91.6241,VALID,0,VALID,23.0183,VALID,16,VALID,1.16094,
2010-07-27, 01:30:04,VALID,1000.3,VALID,0,VALID,91.502,VALID,0,VALID,22.9988,VALID,31,VALID,1.3832,
2010-07-27, 01:31:04,VALID,1000.31,VALID,0,VALID,91.4944,VALID,0,VALID,22.9598,VALID,47,VALID,1.46523,
2010-07-27, 01:32:04,VALID,1000.33,VALID,0,VALID,91.5402,VALID,0,VALID,22.9793,VALID,52,VALID,1.26094,
2010-07-27, 01:33:04,VALID,1000.35,VALID,0,VALID,91.3952,VALID,0,VALID,22.9598,VALID,62,VALID,0.721875,
2010-07-27, 01:34:04,VALID,1000.35,VALID,0,VALID,91.5402,VALID,0,VALID,22.9598,VALID,75,VALID,0.565625,
2010-07-27, 01:35:04,VALID,1000.31,VALID,0,VALID,91.647,VALID,0,VALID,22.9793,VALID,75,VALID,0.443359,
2010-07-27, 01:36:04,VALID,1000.32,VALID,0,VALID,91.7538,VALID,0,VALID,22.9793,VALID,75,VALID,0.607031,
2010-07-27, 01:37:04,VALID,1000.31,VALID,0,VALID,91.7614,VALID,0,VALID,22.9988,VALID,65,VALID,0.423047,
2010-07-27, 01:38:04,VALID,1000.27,VALID,0,VALID,91.7843,VALID,0,VALID,22.9988,VALID,65,VALID,0.530859,
2010-07-27, 01:39:04,VALID,1000.28,VALID,0,VALID,91.6928,VALID,0,VALID,22.9988,VALID,65,VALID,0.0785156,
2010-07-27, 01:40:04,VALID,1000.26,VALID,0,VALID,91.6012,VALID,0,VALID,22.9988,VALID,72,VALID,0,
2010-07-27, 01:41:04,VALID,1000.27,VALID,0,VALID,91.6699,VALID,0,VALID,22.9988,VALID,87,VALID,0,
2010-07-27, 01:42:04,VALID,1000.26,VALID,0,VALID,91.6699,VALID,0,VALID,22.9793,VALID,87,VALID,0,
2010-07-27, 01:43:04,VALID,1000.26,VALID,0,VALID,91.7462,VALID,0,VALID,22.9793,VALID,87,VALID,0,
2010-07-27, 01:44:04,VALID,1000.24,VALID,0,VALID,91.6699,VALID,0,VALID,22.9598,VALID,87,VALID,0,
2010-07-27, 01:45:04,VALID,1000.24,VALID,0,VALID,91.8072,VALID,0.112286,VALID,22.919,VALID,87,VALID,0,
2010-07-27, 01:46:04,VALID,1000.2,VALID,0,VALID,91.7996,VALID,0,VALID,22.9208,VALID,87,VALID,0,
2010-07-27, 01:47:04,VALID,1000.21,VALID,0,VALID,91.8148,VALID,0,VALID,22.9013,VALID,87,VALID,0,
2010-07-27, 01:48:04,VALID,1000.24,VALID,0,VALID,91.853,VALID,0,VALID,22.8818,VALID,87,VALID,0,
2010-07-27, 01:49:04,VALID,1000.24,VALID,0,VALID,91.914,VALID,0,VALID,22.841,VALID,87,VALID,0,
2010-07-27, 01:50:04,VALID,1000.25,VALID,0,VALID,92.0132,VALID,0,VALID,22.8427,VALID,87,VALID,0,
2010-07-27, 01:51:04,VALID,1000.27,VALID,0,VALID,92.1353,VALID,0,VALID,22.8427,VALID,87,VALID,0,
2010-07-27, 01:52:04,VALID,1000.28,VALID,0,VALID,92.1887,VALID,0.112286,VALID,22.8427,VALID,87,VALID,0,
2010-07-27, 01:53:04,VALID,1000.32,VALID,0,VALID,92.2268,VALID,0,VALID,22.8232,VALID,87,VALID,0,
2010-07-27, 01:54:04,VALID,1000.33,VALID,0,VALID,92.1963,VALID,0,VALID,22.8037,VALID,87,VALID,0,
2010-07-27, 01:55:04,VALID,1000.33,VALID,0,VALID,92.4023,VALID,0.112286,VALID,22.8037,VALID,87,VALID,0,
2010-07-27, 01:56:04,VALID,1000.29,VALID,0,VALID,92.4634,VALID,0,VALID,22.8232,VALID,87,VALID,0,
2010-07-27, 01:57:04,VALID,1000.28,VALID,0,VALID,92.4328,VALID,0,VALID,22.8427,VALID,87,VALID,0,
2010-07-27, 01:58:04,VALID,1000.3,VALID,0,VALID,92.3794,VALID,0,VALID,22.8232,VALID,87,VALID,0,
2010-07-27, 01:59:04,VALID,1000.34,VALID,0,VALID,92.4252,VALID,0,VALID,22.8037,VALID,87,VALID,0,
2010-07-27, 02:00:04,VALID,1000.35,VALID,0,VALID,92.6083,VALID,0.112286,VALID,22.8232,VALID,87,VALID,0,
2010-07-27, 02:01:04,VALID,1000.32,VALID,0,VALID,92.7762,VALID,0,VALID,22.8818,VALID,87,VALID,0,
2010-07-27, 02:02:04,VALID,1000.3,VALID,0,VALID,92.8448,VALID,0,VALID,22.8995,VALID,87,VALID,0,
2010-07-27, 02:03:04,VALID,1000.27,VALID,0,VALID,92.7838,VALID,0,VALID,22.8995,VALID,86,VALID,0,
2010-07-27, 02:04:04,VALID,1000.25,VALID,0,VALID,92.6236,VALID,0,VALID,22.8818,VALID,86,VALID,0,
2010-07-27, 02:05:04,VALID,1000.28,VALID,0,VALID,92.5626,VALID,0,VALID,22.8818,VALID,86,VALID,0,
2010-07-27, 02:06:04,VALID,1000.3,VALID,0,VALID,92.6312,VALID,0.112286,VALID,22.88,VALID,86,VALID,0,
2010-07-27, 02:07:04,VALID,1000.31,VALID,0,VALID,92.6999,VALID,0,VALID,22.9013,VALID,86,VALID,0,
2010-07-27, 02:08:04,VALID,1000.33,VALID,0,VALID,92.7609,VALID,0,VALID,22.9208,VALID,86,VALID,0,
2010-07-27, 02:09:04,VALID,1000.3,VALID,0,VALID,92.8296,VALID,0,VALID,22.9208,VALID,86,VALID,0,
2010-07-27, 02:10:04,VALID,1000.3,VALID,0,VALID,92.822,VALID,0,VALID,22.9208,VALID,86,VALID,0,
2010-07-27, 02:11:04,VALID,1000.27,VALID,0,VALID,92.8601,VALID,0,VALID,22.9403,VALID,86,VALID,0,
2010-07-27, 02:12:04,VALID,1000.24,VALID,0,VALID,92.7838,VALID,0,VALID,22.9208,VALID,86,VALID,0,
2010-07-27, 02:13:04,VALID,1000.24,VALID,0,VALID,92.7609,VALID,0,VALID,22.9208,VALID,36,VALID,0,
2010-07-27, 02:14:04,VALID,1000.27,VALID,0,VALID,92.7533,VALID,0,VALID,22.9403,VALID,15,VALID,0,
2010-07-27, 02:15:04,VALID,1000.29,VALID,0,VALID,92.5931,VALID,0,VALID,22.8818,VALID,15,VALID,0,
2010-07-27, 02:16:04,VALID,1000.27,VALID,0,VALID,92.5091,VALID,0,VALID,22.8623,VALID,15,VALID,0,
2010-07-27, 02:17:04,VALID,1000.29,VALID,0,VALID,92.2803,VALID,0,VALID,22.8232,VALID,15,VALID,0,
2010-07-27, 02:18:04,VALID,1000.25,VALID,0,VALID,92.6465,VALID,0,VALID,22.8232,VALID,15,VALID,0,
2010-07-27, 02:19:04,VALID,1000.24,VALID,0,VALID,92.6923,VALID,0,VALID,22.8623,VALID,15,VALID,0,
2010-07-27, 02:20:04,VALID,1000.21,VALID,0,VALID,92.6617,VALID,0,VALID,22.8232,VALID,15,VALID,0,
2010-07-27, 02:21:04,VALID,1000.18,VALID,0,VALID,92.6007,VALID,0.112286,VALID,22.8037,VALID,15,VALID,0,
2010-07-27, 02:22:04,VALID,1000.18,VALID,0,VALID,92.4939,VALID,0,VALID,22.7452,VALID,15,VALID,0,
2010-07-27, 02:23:04,VALID,1000.16,VALID,0,VALID,92.6694,VALID,0,VALID,22.724,VALID,15,VALID,0,
2010-07-27, 02:24:04,VALID,1000.12,VALID,0,VALID,92.7457,VALID,0,VALID,22.7452,VALID,15,VALID,0,
2010-07-27, 02:25:04,VALID,1000.13,VALID,0,VALID,92.7838,VALID,0,VALID,22.7647,VALID,15,VALID,0,
2010-07-27, 02:26:04,VALID,1000.13,VALID,0,VALID,92.7609,VALID,0,VALID,22.7452,VALID,15,VALID,0,
2010-07-27, 02:27:04,VALID,1000.2,VALID,0,VALID,92.6083,VALID,0,VALID,22.7062,VALID,35,VALID,0,
2010-07-27, 02:28:04,VALID,1000.16,VALID,0,VALID,92.6999,VALID,0,VALID,22.7045,VALID,44,VALID,0,
2010-07-27, 02:29:04,VALID,1000.23,VALID,0,VALID,92.616,VALID,0,VALID,22.7257,VALID,46,VALID,0,
2010-07-27, 02:30:04,VALID,1000.2,VALID,0,VALID,92.3871,VALID,0,VALID,22.7257,VALID,52,VALID,0,
2010-07-27, 02:31:04,VALID,1000.16,VALID,0,VALID,92.4023,VALID,0,VALID,22.763,VALID,70,VALID,0,
2010-07-27, 02:32:04,VALID,1000.14,VALID,0,VALID,92.2803,VALID,0,VALID,22.8037,VALID,67,VALID,0,
2010-07-27, 02:33:04,VALID,1000.1,VALID,0,VALID,92.12,VALID,0,VALID,22.8232,VALID,64,VALID,0,
2010-07-27, 02:34:04,VALID,1000.08,VALID,0,VALID,92.059,VALID,0,VALID,22.8427,VALID,64,VALID,0,
2010-07-27, 02:35:04,VALID,1000.12,VALID,0,VALID,91.8606,VALID,0,VALID,22.8623,VALID,64,VALID,0,
2010-07-27, 02:36:04,VALID,1000.12,VALID,0,VALID,91.7996,VALID,0,VALID,22.8623,VALID,64,VALID,0,
2010-07-27, 02:37:04,VALID,1000.11,VALID,0,VALID,91.647,VALID,0,VALID,22.9013,VALID,62,VALID,0,
2010-07-27, 02:38:04,VALID,1000.09,VALID,0,VALID,91.3494,VALID,0,VALID,22.88,VALID,43,VALID,1.56445,
2010-07-27, 02:39:04,VALID,1000.08,VALID,0,VALID,90.9298,VALID,0,VALID,22.8605,VALID,32,VALID,1.57539,
2010-07-27, 02:40:04,VALID,1000.04,VALID,0,VALID,90.762,VALID,0,VALID,22.802,VALID,33,VALID,1.34687,
2010-07-27, 02:41:04,VALID,1000.1,VALID,0,VALID,90.9756,VALID,0,VALID,22.7647,VALID,31,VALID,1.01797,
2010-07-27, 02:42:04,VALID,1000.1,VALID,0,VALID,91.1511,VALID,0,VALID,22.7062,VALID,35,VALID,0.757422,
2010-07-27, 02:43:04,VALID,1000.11,VALID,0,VALID,91.5249,VALID,0,VALID,22.6655,VALID,35,VALID,0.680078,
2010-07-27, 02:44:04,VALID,1000.09,VALID,0,VALID,91.7385,VALID,0,VALID,22.6655,VALID,35,VALID,0.651953,
2010-07-27, 02:45:04,VALID,1000.1,VALID,0,VALID,91.8835,VALID,0,VALID,22.6672,VALID,37,VALID,0.345703,
2010-07-27, 02:46:04,VALID,1000.08,VALID,0,VALID,92.0132,VALID,0,VALID,22.6477,VALID,40,VALID,0.405469,
2010-07-27, 02:47:04,VALID,1000.09,VALID,0,VALID,92.0971,VALID,0,VALID,22.6477,VALID,41,VALID,0.722656,
2010-07-27, 02:48:04,VALID,1000.07,VALID,0,VALID,92.1734,VALID,0,VALID,22.6087,VALID,40,VALID,0.929297,
2010-07-27, 02:49:04,VALID,1000.03,VALID,0,VALID,92.1048,VALID,0,VALID,22.5892,VALID,36,VALID,0.739453,
2010-07-27, 02:50:04,VALID,1000.04,VALID,0,VALID,91.9751,VALID,0,VALID,22.5306,VALID,36,VALID,0.0121094,
2010-07-27, 02:51:04,VALID,1000.05,VALID,0,VALID,92.0666,VALID,0,VALID,22.4916,VALID,36,VALID,0,
2010-07-27, 02:52:04,VALID,1000.09,VALID,0,VALID,92.4023,VALID,0,VALID,22.5501,VALID,343,VALID,0,
2010-07-27, 02:53:04,VALID,1000.1,VALID,0,VALID,92.5931,VALID,0,VALID,22.5679,VALID,340,VALID,0,
2010-07-27, 02:54:04,VALID,1000.09,VALID,0,VALID,92.6236,VALID,0,VALID,22.5679,VALID,251,VALID,0,
2010-07-27, 02:55:04,VALID,1000.09,VALID,0,VALID,92.7075,VALID,0,VALID,22.6282,VALID,251,VALID,0,
2010-07-27, 02:56:04,VALID,1000.09,VALID,0,VALID,92.7304,VALID,0,VALID,22.6264,VALID,251,VALID,0,
2010-07-27, 02:57:04,VALID,1000.07,VALID,0,VALID,92.7304,VALID,0,VALID,22.6477,VALID,251,VALID,0,
2010-07-27, 02:58:04,VALID,1000.17,VALID,0,VALID,92.6923,VALID,0,VALID,22.6264,VALID,251,VALID,0,
2010-07-27, 02:59:04,VALID,1000.21,VALID,0,VALID,92.5702,VALID,0,VALID,22.6477,VALID,192,VALID,0,
2010-07-27, 03:00:04,VALID,1000.19,VALID,0,VALID,92.6236,VALID,0,VALID,22.6477,VALID,180,VALID,0,
2010-07-27, 03:01:04,VALID,1000.14,VALID,0,VALID,92.5626,VALID,0,VALID,22.6672,VALID,163,VALID,0,
2010-07-27, 03:02:04,VALID,1000.14,VALID,0,VALID,92.4786,VALID,0,VALID,22.646,VALID,163,VALID,0,
2010-07-27, 03:03:04,VALID,1000.14,VALID,0,VALID,92.3566,VALID,0,VALID,22.6477,VALID,163,VALID,0,
2010-07-27, 03:04:04,VALID,1000.15,VALID,0,VALID,92.326,VALID,0,VALID,22.646,VALID,163,VALID,0,
2010-07-27, 03:05:04,VALID,1000.16,VALID,0,VALID,92.3871,VALID,0,VALID,22.6672,VALID,163,VALID,0,
2010-07-27, 03:06:04,VALID,1000.19,VALID,0,VALID,92.3642,VALID,0,VALID,22.6655,VALID,163,VALID,0,
2010-07-27, 03:07:04,VALID,1000.22,VALID,0,VALID,92.2192,VALID,0,VALID,22.6672,VALID,163,VALID,0,
2010-07-27, 03:08:04,VALID,1000.19,VALID,0,VALID,92.0514,VALID,0,VALID,22.6282,VALID,163,VALID,0,
2010-07-27, 03:09:04,VALID,1000.17,VALID,0,VALID,91.8988,VALID,0,VALID,22.5696,VALID,163,VALID,0,
2010-07-27, 03:10:04,VALID,1000.16,VALID,0,VALID,91.9674,VALID,0,VALID,22.5501,VALID,163,VALID,0,
2010-07-27, 03:11:04,VALID,1000.15,VALID,0,VALID,92.2268,VALID,0,VALID,22.5306,VALID,163,VALID,0,
2010-07-27, 03:12:04,VALID,1000.14,VALID,0,VALID,92.3718,VALID,0,VALID,22.5289,VALID,163,VALID,0,
2010-07-27, 03:13:04,VALID,1000.14,VALID,0,VALID,92.471,VALID,0,VALID,22.5289,VALID,163,VALID,0,
2010-07-27, 03:14:04,VALID,1000.1,VALID,0,VALID,92.4939,VALID,0,VALID,22.5501,VALID,163,VALID,0,
2010-07-27, 03:15:04,VALID,1000.15,VALID,0,VALID,92.5549,VALID,0,VALID,22.5501,VALID,163,VALID,0,
2010-07-27, 03:16:04,VALID,1000.13,VALID,0,VALID,92.8296,VALID,0,VALID,22.6282,VALID,115,VALID,0,
2010-07-27, 03:17:04,VALID,1000.12,VALID,0,VALID,92.8601,VALID,0,VALID,22.7062,VALID,111,VALID,0,
2010-07-27, 03:18:04,VALID,1000.12,VALID,0,VALID,92.6923,VALID,0,VALID,22.724,VALID,95,VALID,0,
2010-07-27, 03:19:04,VALID,1000.12,VALID,0,VALID,92.3413,VALID,0,VALID,22.7045,VALID,95,VALID,0,
2010-07-27, 03:20:04,VALID,1000.12,VALID,0,VALID,92.1658,VALID,0,VALID,22.7062,VALID,95,VALID,0,
2010-07-27, 03:21:04,VALID,1000.11,VALID,0,VALID,92.0819,VALID,0,VALID,22.7062,VALID,95,VALID,0,
2010-07-27, 03:22:04,VALID,1000.16,VALID,0,VALID,92.1506,VALID,0,VALID,22.6867,VALID,95,VALID,0,
2010-07-27, 03:23:04,VALID,1000.16,VALID,0,VALID,92.1887,VALID,0,VALID,22.7062,VALID,95,VALID,0,
2010-07-27, 03:24:04,VALID,1000.17,VALID,0,VALID,91.9217,VALID,0,VALID,22.6672,VALID,95,VALID,0,
2010-07-27, 03:25:04,VALID,1000.18,VALID,0,VALID,92.1124,VALID,0,VALID,22.6477,VALID,95,VALID,0,
2010-07-27, 03:26:04,VALID,1000.16,VALID,0,VALID,92.1734,VALID,0,VALID,22.6477,VALID,95,VALID,0,
2010-07-27, 03:27:04,VALID,1000.12,VALID,0,VALID,92.0361,VALID,0,VALID,22.5892,VALID,95,VALID,0,
2010-07-27, 03:28:04,VALID,1000.13,VALID,0,VALID,92.2955,VALID,0,VALID,22.6282,VALID,95,VALID,0,
2010-07-27, 03:29:04,VALID,1000.17,VALID,0,VALID,92.4252,VALID,0,VALID,22.6069,VALID,95,VALID,0,
2010-07-27, 03:30:04,VALID,1000.17,VALID,0,VALID,92.532,VALID,0,VALID,22.6477,VALID,95,VALID,0,
2010-07-27, 03:31:04,VALID,1000.17,VALID,0,VALID,92.3489,VALID,0,VALID,22.6087,VALID,8,VALID,0,
2010-07-27, 03:32:04,VALID,1000.17,VALID,0,VALID,92.1658,VALID,0,VALID,22.5696,VALID,8,VALID,0,
2010-07-27, 03:33:04,VALID,1000.21,VALID,0,VALID,91.8911,VALID,0,VALID,22.4916,VALID,8,VALID,0,
2010-07-27, 03:34:04,VALID,1000.19,VALID,0,VALID,92.0971,VALID,0,VALID,22.4721,VALID,43,VALID,0,
2010-07-27, 03:35:04,VALID,1000.14,VALID,0,VALID,92.3566,VALID,0,VALID,22.4721,VALID,43,VALID,0,
2010-07-27, 03:36:04,VALID,1000.1,VALID,0,VALID,92.4786,VALID,0,VALID,22.4916,VALID,43,VALID,0,
2010-07-27, 03:37:04,VALID,1000.13,VALID,0,VALID,92.5015,VALID,0,VALID,22.5111,VALID,43,VALID,0,
2010-07-27, 03:38:04,VALID,1000.17,VALID,0,VALID,92.5626,VALID,0,VALID,22.5306,VALID,43,VALID,0,
2010-07-27, 03:39:04,VALID,1000.15,VALID,0,VALID,92.5931,VALID,0,VALID,22.5501,VALID,43,VALID,0,
2010-07-27, 03:40:04,VALID,1000.16,VALID,0,VALID,92.5397,VALID,0,VALID,22.5696,VALID,43,VALID,0,
2010-07-27, 03:41:04,VALID,1000.17,VALID,0,VALID,92.2497,VALID,0,VALID,22.5696,VALID,43,VALID,0,
2010-07-27, 03:42:04,VALID,1000.19,VALID,0,VALID,92.0132,VALID,0,VALID,22.5306,VALID,43,VALID,0,
2010-07-27, 03:43:04,VALID,1000.18,VALID,0,VALID,92.1048,VALID,0,VALID,22.5696,VALID,43,VALID,0,
2010-07-27, 03:44:04,VALID,1000.2,VALID,0,VALID,92.1582,VALID,0,VALID,22.5696,VALID,43,VALID,0,
2010-07-27, 03:45:04,VALID,1000.23,VALID,0,VALID,92.1582,VALID,0,VALID,22.5892,VALID,43,VALID,0,
2010-07-27, 03:46:04,VALID,1000.23,VALID,0,VALID,91.998,VALID,0,VALID,22.5696,VALID,43,VALID,0,
2010-07-27, 03:47:04,VALID,1000.27,VALID,0,VALID,91.7996,VALID,0,VALID,22.5306,VALID,43,VALID,0,
2010-07-27, 03:48:04,VALID,1000.27,VALID,0,VALID,91.6928,VALID,0,VALID,22.4916,VALID,43,VALID,0,
2010-07-27, 03:49:04,VALID,1000.27,VALID,0,VALID,91.914,VALID,0,VALID,22.4721,VALID,43,VALID,0,
2010-07-27, 03:50:04,VALID,1000.27,VALID,0,VALID,91.6241,VALID,0,VALID,22.4136,VALID,43,VALID,0,
2010-07-27, 03:51:04,VALID,1000.28,VALID,0,VALID,92.0666,VALID,0,VALID,22.3729,VALID,43,VALID,0,
2010-07-27, 03:52:04,VALID,1000.29,VALID,0,VALID,92.2116,VALID,0,VALID,22.4136,VALID,39,VALID,0,
2010-07-27, 03:53:04,VALID,1000.27,VALID,0,VALID,92.1506,VALID,0,VALID,22.3551,VALID,27,VALID,1.02539,
2010-07-27, 03:54:04,VALID,1000.27,VALID,0,VALID,92.2879,VALID,0,VALID,22.3161,VALID,27,VALID,0.930078,
2010-07-27, 03:55:04,VALID,1000.31,VALID,0,VALID,92.4481,VALID,0,VALID,22.2966,VALID,27,VALID,0.873438,
2010-07-27, 03:56:04,VALID,1000.34,VALID,0,VALID,92.3184,VALID,0,VALID,22.2364,VALID,39,VALID,0.676172,